Weather History for Rockland, ME

Change the Weather History Date:

Wednesday, March 12, 2014

  Actual Average Record
Temperature  
Mean Temperature 32 °F -  
Max Temperature 39 °F 34 °F 57 °F (2012)
Min Temperature 26 °F 21 °F 10 °F (1998)
Degree Days  
Heating Degree Days 32    
Moisture  
Dew Point 30 °F    
Average Humidity 87    
Maximum Humidity 100    
Minimum Humidity 70    
Precipitation  
Precipitation 1.14 in - - ()
Sea Level Pressure  
Sea Level Pressure 29.56 in    
Wind  
Wind Speed 5 mph (ENE)    
Max Wind Speed 28 mph    
Max Gust Speed 40 mph    
Visibility 8 miles    
Events      
Averages and records for this station are not official NWS values.
T = Trace of Precipitation, MM = Missing Value Source: NWS Daily Summary

Daily Weather History Graph

Daily Weather History Graph

Search for Another Location

Airport:

Trip Planner

Search our weather history database for the weather conditions in past years. The results will help you decide how hot, cold, wet, or windy it might be!

Date:

Astronomy

Mar. 12, 2014 Rise Set
Actual Time 6:54 AM EDT 6:38 PM EDT
Civil Twilight 6:25 AM EDT 7:07 PM EDT
Nautical Twilight 5:51 AM EDT 7:41 PM EDT
Astronomical Twilight 5:18 AM EDT 8:15 PM EDT
Moon 3:00 PM EDT (3/12) 4:30 AM EDT (3/12)
Length of Visible Light 12h 42m
Length of Day
11h 44m
Waxing Gibbous, 85% of the Moon is Illuminated
Mar 12
Waxing Gibbous
Mar 16
Full
Mar 23
Last Quarter
Mar 30
New
Apr 7
First Quarter

Hourly Weather History & Observations

Time (EDT) Temp. Windchill Dew Point Humidity Pressure Visibility Wind Dir Wind Speed Gust Speed Precip Events Conditions
12:15 AM 30.2 °F - 26.6 °F 86% 29.72 in 10.0 mi Calm Calm - N/A   Clear
12:35 AM 30.2 °F - 26.6 °F 86% 29.73 in 10.0 mi Calm Calm - N/A   Clear
12:55 AM 32.0 °F - 26.6 °F 80% 29.74 in 10.0 mi Calm Calm - N/A   Clear
1:15 AM 32.0 °F - 24.8 °F 75% 29.74 in 10.0 mi Calm Calm - N/A   Clear
1:35 AM 32.0 °F - 24.8 °F 75% 29.74 in 10.0 mi Calm Calm - N/A   Clear
1:55 AM 33.8 °F 29.6 °F 26.6 °F 75% 29.74 in 10.0 mi SSW 4.6 mph - N/A   Clear
2:15 AM 33.8 °F 30.8 °F 26.6 °F 75% 29.75 in 10.0 mi SW 3.5 mph - N/A   Clear
2:35 AM 32.0 °F - 26.6 °F 80% 29.74 in 10.0 mi Calm Calm - N/A   Clear
2:55 AM 30.2 °F - 24.8 °F 80% 29.73 in 10.0 mi Calm Calm - N/A   Clear
3:15 AM 28.4 °F - 24.8 °F 86% 29.73 in 10.0 mi Calm Calm - N/A   Clear
3:35 AM 28.4 °F - 24.8 °F 86% 29.72 in 10.0 mi Calm Calm - N/A   Clear
3:55 AM 26.6 °F - 24.8 °F 93% 29.72 in 10.0 mi Calm Calm - N/A   Clear
4:15 AM 26.6 °F - 24.8 °F 93% 29.73 in 10.0 mi Calm Calm - N/A   Clear
4:35 AM 26.6 °F - 24.8 °F 93% 29.73 in 10.0 mi Calm Calm - N/A   Scattered Clouds
4:55 AM 28.4 °F - 26.6 °F 93% 29.74 in 10.0 mi Calm Calm - N/A   Mostly Cloudy
5:15 AM 28.4 °F - 26.6 °F 93% 29.74 in 10.0 mi Calm Calm - N/A   Overcast
5:35 AM 28.4 °F - 26.6 °F 93% 29.73 in 10.0 mi Calm Calm - N/A   Overcast
5:55 AM 28.4 °F - 26.6 °F 93% 29.73 in 10.0 mi Calm Calm - N/A   Mostly Cloudy
6:15 AM 28.4 °F - 28.4 °F 100% 29.73 in 10.0 mi Calm Calm - N/A   Overcast
6:35 AM 32.0 °F - 28.4 °F 87% 29.73 in 10.0 mi Calm Calm - N/A   Overcast
6:55 AM 30.2 °F - 28.4 °F 93% 29.73 in 10.0 mi Calm Calm - N/A   Overcast
7:15 AM 30.2 °F - 26.6 °F 86% 29.74 in 10.0 mi Calm Calm - N/A   Overcast
7:35 AM 30.2 °F - 28.4 °F 93% 29.74 in 10.0 mi Calm Calm - N/A   Overcast
7:55 AM 30.2 °F - 28.4 °F 93% 29.74 in 10.0 mi Calm Calm - N/A   Overcast
8:15 AM 32.0 °F - 30.2 °F 93% 29.73 in 10.0 mi Calm Calm - N/A   Overcast
8:35 AM 35.6 °F 31.7 °F 32.0 °F 87% 29.73 in 10.0 mi SSE 4.6 mph - N/A   Overcast
8:55 AM 37.4 °F 32.8 °F 32.0 °F 81% 29.73 in 10.0 mi South 5.8 mph - N/A   Mostly Cloudy
9:15 AM 37.4 °F 30.8 °F 32.0 °F 81% 29.73 in 10.0 mi SSE 9.2 mph - N/A   Mostly Cloudy
9:35 AM 37.4 °F 31.4 °F 30.2 °F 75% 29.73 in 10.0 mi SSE 8.1 mph - N/A   Mostly Cloudy
9:55 AM 39.2 °F 33.0 °F 30.2 °F 70% 29.74 in 10.0 mi SSE 9.2 mph - N/A   Overcast
10:15 AM 39.2 °F 33.6 °F 30.2 °F 70% 29.73 in 10.0 mi SSE 8.1 mph - N/A   Overcast
10:35 AM 39.2 °F 34.2 °F 30.2 °F 70% 29.72 in 10.0 mi SE 6.9 mph - N/A   Overcast
10:55 AM 39.2 °F 33.6 °F 30.2 °F 70% 29.71 in 10.0 mi SE 8.1 mph - N/A   Overcast
11:15 AM 39.2 °F 35.9 °F 30.2 °F 70% 29.71 in 10.0 mi SE 4.6 mph - N/A   Overcast
11:35 AM 37.4 °F 32.1 °F 32.0 °F 81% 29.70 in 10.0 mi ESE 6.9 mph - N/A   Overcast
11:55 AM 37.4 °F 33.8 °F 32.0 °F 81% 29.69 in 10.0 mi East 4.6 mph - N/A   Overcast
12:15 PM 37.4 °F 31.4 °F 32.0 °F 81% 29.67 in 10.0 mi East 8.1 mph - N/A   Overcast
12:35 PM 39.2 °F 33.0 °F 30.2 °F 70% 29.66 in 10.0 mi East 9.2 mph - N/A   Overcast
12:55 PM 39.2 °F 33.0 °F 30.2 °F 70% 29.65 in 10.0 mi ENE 9.2 mph - N/A   Overcast
1:15 PM 39.2 °F 33.0 °F 30.2 °F 70% 29.65 in 10.0 mi ENE 9.2 mph - N/A   Overcast
1:35 PM 37.4 °F 31.4 °F 30.2 °F 75% 29.64 in 10.0 mi NNE 8.1 mph - N/A   Overcast
1:55 PM 37.4 °F 30.8 °F 30.2 °F 75% 29.64 in 10.0 mi NNE 9.2 mph - N/A   Mostly Cloudy
2:15 PM 37.4 °F 31.4 °F 30.2 °F 75% 29.62 in 10.0 mi NNE 8.1 mph - N/A   Overcast
2:35 PM 35.6 °F 30.7 °F 33.8 °F 93% 29.61 in 10.0 mi East 5.8 mph - N/A   Overcast
2:55 PM 37.4 °F 32.8 °F 33.8 °F 87% 29.59 in 10.0 mi East 5.8 mph - N/A   Overcast
3:15 PM 37.4 °F 29.3 °F 33.8 °F 87% 29.54 in 10.0 mi NE 12.7 mph - N/A   Mostly Cloudy
3:35 PM 37.4 °F 30.3 °F 33.8 °F 87% 29.53 in 10.0 mi NE 10.4 mph - N/A   Overcast
3:55 PM 35.6 °F 28.6 °F 33.8 °F 93% 29.52 in 10.0 mi NE 9.2 mph - N/A   Overcast
4:15 PM 35.6 °F 28.6 °F 33.8 °F 93% 29.50 in 10.0 mi NE 9.2 mph - N/A   Overcast
4:35 PM 35.6 °F 28.6 °F 33.8 °F 93% 29.50 in 10.0 mi NE 9.2 mph - N/A   Overcast
4:55 PM 35.6 °F 28.0 °F 33.8 °F 93% 29.45 in 4.0 mi NNE 10.4 mph 16.1 mph 0.04 in   Overcast
5:15 PM 35.6 °F 27.5 °F 33.8 °F 93% 29.43 in 3.0 mi NNE 11.5 mph 17.3 mph 0.05 in   Overcast
5:35 PM 33.8 °F 23.9 °F 33.8 °F 100% 29.42 in 1.8 mi NE 15.0 mph - 0.12 in   Overcast
5:55 PM 35.6 °F 26.2 °F 33.8 °F 93% 29.38 in 2.0 mi NE 15.0 mph - 0.19 in   Overcast
6:15 PM 35.6 °F 27.1 °F 35.6 °F 100% 29.38 in 3.0 mi NE 12.7 mph 16.1 mph 0.06 in   Overcast
6:35 PM 35.6 °F 25.5 °F 35.6 °F 100% 29.34 in 3.0 mi NE 17.3 mph 23.0 mph 0.11 in   Overcast
6:55 PM 35.6 °F 26.2 °F 35.6 °F 100% 29.33 in 5.0 mi NE 15.0 mph 19.6 mph 0.17 in   Overcast
7:15 PM 35.6 °F 25.9 °F 33.8 °F 93% 29.32 in 4.0 mi NE 16.1 mph 21.9 mph 0.07 in   Overcast
7:35 PM 35.6 °F 24.5 °F 33.8 °F 93% 29.28 in 3.0 mi NE 20.7 mph 24.2 mph 0.14 in   Overcast
7:55 PM 35.6 °F 25.5 °F 35.6 °F 100% 29.26 in 4.0 mi ENE 17.3 mph 25.3 mph 0.19 in   Overcast
8:15 PM 35.6 °F 24.5 °F 35.6 °F 100% 29.25 in 5.0 mi NE 20.7 mph 28.8 mph 0.03 in   Overcast
8:35 PM 35.6 °F 26.2 °F 35.6 °F 100% 29.24 in 3.0 mi NNE 15.0 mph 29.9 mph 0.11 in   Overcast
8:55 PM 35.6 °F 23.4 °F 33.8 °F 93% 29.21 in 2.5 mi NE 25.3 mph 34.5 mph 0.19 in   Overcast
9:15 PM 33.8 °F 24.3 °F 32.0 °F 93% 29.20 in 4.0 mi NNE 13.8 mph 24.2 mph 0.04 in   Overcast
9:35 PM 33.8 °F 22.8 °F 33.8 °F 100% 29.17 in 5.0 mi NE 18.4 mph 27.6 mph 0.06 in   Overcast
9:55 PM 33.8 °F 22.2 °F 33.8 °F 100% 29.17 in 5.0 mi NNE 20.7 mph 27.6 mph 0.10 in   Overcast
10:15 PM 33.8 °F 21.3 °F 33.8 °F 100% 29.15 in 3.0 mi NNE 24.2 mph 33.4 mph 0.06 in   Overcast
10:35 PM 33.8 °F 20.5 °F 33.8 °F 100% 29.13 in 2.5 mi NNE 27.6 mph 40.3 mph 0.11 in   Overcast
10:55 PM 33.8 °F 22.8 °F 32.0 °F 93% 29.12 in 3.0 mi NNE 18.4 mph 31.1 mph 0.15 in   Overcast
11:15 PM 32.0 °F 22.5 °F 30.2 °F 93% 29.12 in 4.0 mi NNE 12.7 mph 25.3 mph 0.04 in   Overcast
11:35 PM 32.0 °F 21.2 °F 30.2 °F 93% 29.11 in 5.0 mi NNE 16.1 mph 24.2 mph 0.09 in   Overcast
11:55 PM 32.0 °F 23.6 °F 30.2 °F 93% 29.11 in 9.0 mi North 10.4 mph 20.7 mph 0.11 in   Overcast